"Pseudo-MPEC" for S511443

Created 2018 Aug 25 1:59:34 UT using Find_Orb

Click here for an explanation of pseudo-MPECs

 
 Astrometry: 
     S511443 tC2018 06 220;Astrometry979N,e!@cRo7l\DTNg(we^p^-EW[hhP[Yi0?Te_qY00
     S511443 tC2018 06 22=.cdjasN!p:_@Rl?/M.wXC0G-OVMhMjwj.AR'n(dtA+L3J\:23r0Y00
     S511443  C2018 06 22Dt=M*j15mwhTX]4:!/[`[Heqcw+5a)cY0m#%ls[j5y#=2xaHGsdWY00
     S511443  C2018 06 22XS?a=xLd!RiHL$8Bm:Aq1u)06+1%Ot](9yEkKdF#Sn)X`KKUFvfBY00
     S511443  C2018 06 22ZP2e;ODj#\sp[ra`\a=j0GJL'YM$FI^P[#ldH6g*/]?\x%:BbJCdY00
     S511443 tC2018 06 22NJF.wJ.b^[e*FgAgq*Kjf#o+=lGAi2p9XXj\fjDJc/QPmZrGGvp,Y00
     S511443  C2018 06 22mbSi,?9yQqj3]41anOptZB6[:]\jTh^puMofF7F4t4y5)N,W.`yyY00
     S511443 tC2018 06 22A:\W*6yB-uIcji?jeredacted;$TTXj],Pno6nn2bPiFAii(8Eb(Y00
     S511443 tC2018 06 22eRbP1=*i-AO76DM^l9Fw)lL5j(ERd0^L;oiy^PA4g12oI%.ok;t=Y00
     S511443  C2018 06 22Qta3s9w*xIyGmx,Cste*,4Sevgh;_I5G\/:Ym8\l`OjFMd@lHVl2Y00
     S511443  C2018 06 223D*O*S+i'EN89@RheRo)La+RA;xxNfBX;f31/o12C#KdUm)-c2Y$Y00
     S511443  C2018 06 22qe3dxaPtsE!_2fo'Q[KT`icSrJp^]O/IOBg']q!1pVp(C?0NT5):Y00
     S511443  C2018 06 22$FHPqhTGwWvtD#1oYBe5mHXf2aAGj5%j]/aVQ#(MTr14Aj0-#U8jY00
     S511443  C2018 06 22Ay1hCFG4^VO:aEqisKFk]42'DsaH(8IS#kQ#8?aHnU/:My3REXiYY00
     S511443  C2018 06 22DqWX%2qJ@NoqR.6mV*#@x*s1\iLQhw.,see/h`B_db4Z3@h#gx-jY00
     S511443 tC2018 06 22r,tkq1/;]:)ZIii7OeP:'tn8qn%JgeyX\0BQG\Z[_I$PyD'mKEg@Y00
     S511443  C2018 06 22^]kQpB5AwL+?#RU^g;alk`6rS;rt50W'(/QJ'Al$mQwJ^SbKHJq9Y00
     S511443  C2018 06 220af#8llHJMP3%:FsmxJq\WZa%*Ysn@_fwwYDy]q)pP)dP*7w\borY00
     S511443 tC2018 06 22?OYyYlr'gWnd.Mba0ZjZdsx;W689Ra1K6EJI7BQ$SyC;L+6?lJ*@Y00
     S511443 tC2018 06 22yw87kDSVpi!@mm=xqpw:fIh9?[cIU?RXnwVGTLj/G]d[N4XB[BCtY00
     S511443  C2018 06 22bX7e3Wh?i\=y]KLMZM177Fe%%-Z:*#il5Z1HkSg4i*4L/`Tj3e[$Y00
     S511443  C2018 06 22eF]D-=_7tN]/bI1TyhF]Lm7OEr-1rkUYbnq7v._W294e[ZHNEOCPY00
     S511443 tC2018 06 22.18674 21 20 12.43 -19 59 46.8          13.1 R?     Y00
     S511443  C2018 06 22.18707 21 20 17.07 -20 00 15.1          12.2 R?     Y00
     S511443  C2018 06 22.18732 21 20 20.64 -20 00 36.9          12.5 R?     Y00
     S511443  C2018 06 22.18759 21 20 24.30 -20 00 59.6          12.3 R?     Y00
     S511443  C2018 06 22.18788 21 20 28.36 -20 01 24.2          12.4 R?     Y00
     S511443 tC2018 06 22.18816 21 20 32.40 -20 01 48.8          12.6 R?     Y00
     S511443  C2018 06 22.18844 21 20 36.35 -20 02 13.0          12.0 R?     Y00
     S511443 tC2018 06 22.18905 21 20 44.91 -20 03 05.1          12.5 R?     Y00
     S511443  C2018 06 22.18934 21 20 49.00 -20 03 30.0          12.0 R?     Y00
     S511447 tC2018 06 27.16351 20 55 11.23 -18 43 10.7          12.8 Rq     Y00
     S511447 tC2018 06 27.16463 20 55 24.92 -18 44 50.6          12.4 Rq     Y00
     S511447 tC2018 06 27.16571 20 55 38.25 -18 46 27.2          12.7 Rq     Y00
     S511447  C2018 06 27.26343 21 15 52.49 -20 51 31.3          12.1 Rq     Y00
     S511447  C2018 06 27.26369 21 15 55.83 -20 51 47.8          12.0 Rq     Y00
     S511447  C2018 06 27.26397 21 15 59.44 -20 52 05.4          12.3 Rq     Y00
     S511447 tC2018 06 27.33890 21 34 25.14 -22 00 49.0          12.7 Rq     Y00
     S511447 tC2018 06 27.33990 21 34 41.83 -22 01 33.1          12.4 Rq     Y00
     S511447 tC2018 06 27.34086 21 34 58.14 -22 02 16.7          12.6 Rq     Y00
     S511443 tC2018 07 13.06047 20 28 24.22 -16 51 24.9          12.6 Rq     Y00
     S511443 tC2018 07 13.06141 20 28 37.92 -16 53 17.5          12.8 Rq     Y00
     S511443 tC2018 07 13.06247 20 28 53.08 -16 55 21.2          12.3 Rq     Y00
     S511443 tC2018 07 14.21719 22 02 55.71 -23 16 24.8          12.9 Rq     Y00
     S511443 tC2018 07 14.21869 22 03 23.68 -23 17 50.0          12.9 Rq     Y00
     S511443 tC2018 07 14.21964 22 03 41.61 -23 18 43.6          13.2 Rq     Y00
     S511443 tC2018 07 14.32082 22 46 31.55 -24 23 07.8          12.6 Rq     Y00
     S511443 tC2018 07 14.32182 22 47 07.76 -24 23 18.3          12.6 Rq     Y00
     S511443 tC2018 07 14.32281 22 47 44.73 -24 23 28.4          12.6 Rq     Y00

Station data:
(Y00) SONEAR Observatory, Oliveira  (S20.715082 W44.784960)  Brazil.
   Observers C. Jacques, E. Pimentel, J. Barros. Measurer C. Jacques. 0.28-m
   f/2.2 astrograph + CCD.

Orbital elements:  S511443
   Perigee 2018 Jun 21.687631 +/- 1.24e-5 TT = 16:30:11 (JD 2458291.187631)
Epoch 2018 Jun 22.0 TT; AMR 0.0061692 +/- 0.0022 m2/kg       Gray
M 133.352620 +/- 0.0052             (J2000 equator)
n 426.907488546 +/- 7.71e-5         Peri.   52.218974 +/- 0.0009
a 37703.44126 +/- 0.00454           Node    81.655928 +/- 0.00006
e   0.81279261 +/- 5.65e-6          Incl.   24.005731 +/- 0.00016
P1214.29m/0.843d           H 28.3   G  0.15   U  6.4
q 7058.362828 +/- 0.213    Q 68348.51969 +/- 0.216
From 49 observations 2018 June 22-July 14; mean residual 2".070
Residuals in arcseconds: 
180622 Y00 1.57+ .531-    180622 Y00 .675+ .053-    180627 Y00 2.60- .729+
180622 Y00 1.59+ .952-    180622 Y00 1.21+ .355-    180627 Y00 3.73- 1.00+
180622 Y00 .017- .186-    180622 Y00 .346+ .103-    180627 Y00 4.80- 1.45+
180622 Y00 .210+ .112-    180622 Y00 .960- .587+    180627 Y00 3.59+ 1.12-
180622 Y00 .474- .361+    180622 Y00 .736- .392+    180627 Y00 .274+ .011-
180622 Y00 4.7m+ .119+    180622 Y00 .599+ .088+    180627 Y00 .108+ .468-
180622 Y00 .793- .371+    180622 Y00 .569+ .190+    180713 Y00 1.22+ .510-
180622 Y00 .061+ .110+    180622 Y00 1.31+ .105-    180713 Y00 2.42+ 1.58-
180622 Y00 .129- .090+    180622 Y00 .656- .409+    180713 Y00 .329+ .042-
180622 Y00 .082- .055+    180622 Y00 .962- .727+    180714 Y00 .595- .686+
180622 Y00 .381- .213+    180622 Y00 .422+ .173+    180714 Y00 1.68- .515+
180622 Y00 .014+ 171µ+    180622 Y00 .527+ 6.2m+    180714 Y00 .606- .464+
180622 Y00 .443+ .151-    180622 Y00 .077+ .217+    180714 Y00 10.8- .178+
180622 Y00 .107- .083+    180622 Y00 .133+ .164+    180714 Y00 13.1- .306+
180622 Y00 .138+ .190-    180627 Y00 .197- .019+    180714 Y00 4.86- .153-
180622 Y00 2.08+ .608-    180627 Y00 1.96- .552+
180622 Y00 1.11+ .785-    180627 Y00 1.67- .487+

Ephemerides (geocentric):
Date (UTC) HH   RA              Dec         delta  elong  mag " sig PA
---- -- -- --  -------------   -----------  ------ -----  --- ---- ---
2018 07 14 00  20 45 51.166   -19 40 20.22   68097 162.6 12.5 .281 130
2018 07 14 01  20 58 51.658   -20 24 46.10   68399 159.8 12.6 .106   1
2018 07 14 02  21 12 02.823   -21 05 42.98   67800 156.8 12.7 .171  73
2018 07 14 03  21 25 46.395   -21 43 55.37   66286 153.7 12.7 .268  87
2018 07 14 04  21 40 28.697   -22 19 49.00   63819 150.4 12.7 .305  92
2018 07 14 05  21 56 45.786   -22 53 27.24   60333 146.8 12.7 .252  94
2018 07 14 06  22 15 33.098   -23 24 15.20   55723 142.6 12.7 .050 111
2018 07 14 07  22 38 26.804   -23 50 09.64   49819 137.4 12.6 .441  87
2018 07 14 08  23 08 40.575   -24 04 47.42   42349 130.7 12.4 1.58  87
2018 07 14 09  23 54 20.961   -23 44 37.47   32826 120.4 12.1 4.72  84
2018 07 14 10  01 26 18.231   -20 30 05.37   20278  99.1 11.8 19.0  76
2018 07 14 11  09 52 22.896   +22 44 47.35    7075  32.0 14??  212  82
2018 07 14 12  17 08 17.979   +00 30 40.69   21547 138.1 10.7 25.1 115
2018 07 14 13  18 20 43.062   -07 25 44.62   33769 157.3 11.2 9.95 115
2018 07 14 14  18 58 10.480   -11 12 43.21   43083 166.4 11.4 5.60 114
2018 07 14 15  19 23 53.557   -13 35 43.42   50400 171.5 11.5 3.57 114
2018 07 14 16  19 43 59.368   -15 18 50.74   56180 173.3 11.7 2.39 114
2018 07 14 17  20 00 56.389   -16 39 24.19   60686 172.1 11.9 1.61 115
2018 07 14 18  20 15 59.971   -17 45 46.73   64078 169.6 12.1 1.06 116
2018 07 14 19  20 29 54.842   -18 42 36.24   66458 166.8 12.3 .650 119
2018 07 14 20  20 43 11.305   -19 32 40.89   67890 164.0 12.5 .341 127
2018 07 14 21  20 56 12.753   -20 17 49.17   68410 161.1 12.6 .132 162
2018 07 14 22  21 09 19.906   -20 59 13.88   68028 158.2 12.6 .148  64
2018 07 14 23  21 22 53.937   -21 37 43.90   66738 155.2 12.7 .253  85
2018 07 15 00  21 37 19.686   -22 13 48.90   64506 151.9 12.7 .308  91
2018 07 15 01  21 53 10.213   -22 47 37.60   61274 148.3 12.7 .283  93
2018 07 15 02  22 11 14.950   -23 18 45.68   56947 144.3 12.7 .128  99
2018 07 15 03  22 32 57.042   -23 45 37.32   51376 139.4 12.6 .266  86
2018 07 15 04  23 00 57.282   -24 03 18.94   44318 133.1 12.4 1.17  87
2018 07 15 05  23 41 34.487   -23 54 59.51   35353 124.0 12.2 3.54  85